Regional Weather Roundup
Issued by NWS

Home | Current Version | Previous Version | Text Only | Print | Product List | Glossary Off
Versions: 1 2 3 4 5 6 7 8 9 10 11 12 13 14 15 16 17 18 19 20 21 22 23 24 25 26 27 28 29 30 31 32 33 34 35 36 37 38 39 40 41 42 43 44 45 46 47 48 49 50

000
ASUS43 KMKX 241910
RWRWI

WISCONSIN REGIONAL WEATHER ROUNDUP
NATIONAL WEATHER SERVICE MILWAUKEE/SULLIVAN WI
200 PM CDT TUE APR 24 2018

NOTE: "FAIR" INDICATES FEW OR NO CLOUDS BELOW 12,000 FEET WITH NO
SIGNIFICANT WEATHER AND/OR OBSTRUCTIONS TO VISIBILITY.

WIZ001-002-006>008-014>016-023>028-242000-
NORTHWEST WISCONSIN

CITY           SKY/WX    TMP DP  RH WIND       PRES   REMARKS
SUPERIOR ARPT  CLOUDY    48  29  48 CALM      30.22F
ASHLAND        CLOUDY    47  29  49 NE12      30.21F
HAYWARD        FAIR      56  31  38 N12       30.17S
SIREN          CLOUDY    58  29  32 N10       30.19R
CUMBERLAND     FAIR      55  30  38 CALM      30.15S
RICE LAKE      FAIR      62  32  32 N12G17    30.15S
CHETEK         FAIR      62  33  34 N10G17    30.13S
LADYSMITH      FAIR      63  33  31 NW13      30.13S
EAU CLAIRE     FAIR      68  34  28 N13       30.08F
MENOMONIE      PTSUNNY   67  32  27 N13G20    30.11S
NEW RICHMOND   FAIR      62  30  30 N15       30.15S
OSCEOLA        FAIR      60  31  33 N16G24    30.19S
$$

WIZ003>005-009-010-017-018-242000-
NORTH CENTRAL WISCONSIN

CITY           SKY/WX    TMP DP  RH WIND       PRES   REMARKS
MANITOWISH WTR FAIR      55  28  36 N6        30.12S
ARBOR VITAE    PTSUNNY   57  29  34 N8G16     30.10F
WOODRUFF       PTSUNNY   57  29  34 N8G16     30.10F
RHINELANDER    FAIR      61  31  32 N8        30.09F
EAGLE RIVER    FAIR      56  29  35 N9        30.09F
LAND O LAKES   CLOUDY    54  29  38 N8        30.12F
PHILLIPS       FAIR      61  33  34 N9G17     30.10F
TOMAHAWK       FAIR      63  31  30 NW8       30.09S
MEDFORD        FAIR      64  37  36 N12       30.07F
MERRILL        FAIR      68  37  32 N10G17    30.06F
$$

WIZ029-030-035-036-043>047-242000-
CENTRAL WISCONSIN

CITY           SKY/WX    TMP DP  RH WIND       PRES   REMARKS
WAUSAU         PTSUNNY   69  33  26 NW8       30.02F
MOSINEE        MOSUNNY   66  32  28 VRB5      30.05F
MARSHFIELD     FAIR      69  38  32 N6        30.04F
STEVENS POINT  CLOUDY    68  30  24 NE7       30.04F
WAUPACA        PTSUNNY   71  26  18 NE6       30.04F
WAUTOMA        FAIR      69  29  22 E9        30.03F
WISC RAPIDS    FAIR      70  30  22 VRB5      30.05F
CAMP DOUGLAS   MOSUNNY   72  34  25 NW6       30.04F
$$

WIZ011>013-019>022-031-037>040-048>050-242000-
NORTHEAST WISCONSIN

CITY           SKY/WX    TMP DP  RH WIND       PRES   REMARKS
ANTIGO         FAIR      64  36  35 E6        30.05F
SHAWANO        CLOUDY    65  33  31 SE6       30.05S
OCONTO         FAIR      63  20  19 SE6       30.05F
STURGEON BAY   FAIR      61  25  25 E6        30.07S
GREEN BAY      FAIR      64  30  27 NE6       30.05F
MANITOWOC      FAIR      57  48  72 E8        30.06F
APPLETON       MOSUNNY   64  27  24 VRB6      30.03F
CLINTONVILLE   CLOUDY    64  28  25 S3        30.05S
OSHKOSH        FAIR      65  34  31 NE9       30.04F
$$

WIZ032>034-041-042-053>061-242000-
SOUTHWEST WISCONSIN

CITY           SKY/WX    TMP DP  RH WIND       PRES   REMARKS
LA CROSSE      FAIR      73  36  25 W10       30.05F
SPARTA         FAIR      72  34  25 NW8       30.05F
VIROQUA        FAIR      68  37  31 N8        30.05F
BOSCOBEL       FAIR      74  30  19 VRB6      30.04F
PRAIRIE DU CHI FAIR      71  28  20 N9        30.04F
PLATTEVILLE    FAIR      70  30  22 W8        30.04F
$$

WIZ056-057-062-063-064-067-068-242000-
SOUTH CENTRAL WISCONSIN

CITY           SKY/WX    TMP DP  RH WIND       PRES   REMARKS
REEDSBURG      FAIR      70  33  26 N13       30.04S
BARABOO/DELLS  FAIR      70  27  19 N5        30.03F
LONE ROCK      FAIR      72  32  23 VRB3      30.03F
MINERAL POINT  FAIR      72  27  18 N3        30.04F
MADISON        FAIR      70  30  22 N13       30.02F
MIDDLETON      FAIR      71  29  21 NE9       30.03F
WATERTOWN      FAIR      67  34  28 N7        30.02F
MONROE         FAIR      70  23  17 NE6       30.01F
JANESVILLE     MOSUNNY   72  27  18 NE8       30.01F
$$

WIZ051-052-058>065-066-070>072-242000-
SOUTHEAST WISCONSIN

CITY           SKY/WX    TMP DP  RH WIND       PRES   REMARKS
MILWAUKEE      FAIR      60  45  57 E7        30.04F
WAUKESHA       SUNNY     66  36  32 E7        30.03F
MILWAUKEE/TIMM SUNNY     63  36  36 NE3       30.04F
RACINE         FAIR      59  45  59 NE8       30.05F
BURLINGTON     FAIR      67  44  43 NE7       30.01F
KENOSHA        FAIR      62  48  60 E9        30.03F
FOND DU LAC    FAIR      64  34  32 N12       30.04F
SHEBOYGAN      FAIR      57  48  72 NE12      30.05S
WEST BEND      FAIR      66  37  34 E7        30.02S
JUNEAU         FAIR      66  30  26 N6        30.04S
$$

LSZ147-162-242000-
LAKE SUPERIOR

STATION/POSITION TIME  TEMP    WIND        PRES    WAVE
                       AIR SEA DIR/SP/G            HT/PER
                 (UTC) (F)     (DEG/KT/KT) (MB)    (FT/S)
DEVILS ISLAND    1900   44     130/  4/  5 1023.5F
SAXON HARBOR     1830   40     300/  2/  2 1022.7S
$$

LMZ867-665-643>646-242000-
LAKE MICHIGAN

STATION/POSITION TIME  TEMP    WIND        PRES    WAVE
                       AIR SEA DIR/SP/G            HT/PER
                 (UTC) (F)     (DEG/KT/KT) (MB)    (FT/S)
NORTHPORT PIER   1840   43                 1018.3S
KEWAUNEE LAKESHO 1842   47      30/  3/  5 1017.4F
SHEBOYGAN LAKESH 1900   43      30/  8/  9 1017.9F
PORT WASHINGTON  1840   48      40/  3/  4 1018.3F
MILWAUKEE LAKESH 1850   42      40/  6/  7   N/A
KENOSHA   LAKESH 1900   42                 1017.3
$$

TC  - TEMPERATURE IN CELSIUS
VSB - VISIBILITY IN STATUTE MILES
WCI - WIND CHILL INDEX
HX  - HEAT INDEX




USA.gov is the U.S. government's official web portal to all federal, state and local government web resources and services.